Location: *
(42.0175°N, 9.4056°E)
Time: 22:46:33
(UTC+00:00)

COSMOS 2428 - Pass Details

Date: 25 August 2019
Orbit: 846 x 855 km, 70.9° (Epoch: 18 September)

Event Time Altitude Azimuth Distance (km) Brightness Sun altitude
Rises 23:34:04 0° 334° (NNW) 3,418 6.6 -37.3°
Reaches altitude 10° 23:36:31 10° 334° (NNW) 2,478 5.7 -37.3°
Enters shadow 23:39:01 27° 331° (NNW) 1,568 4.4 -37.3°
